KG4QXL-1 Weather Reports


time (UTC)temp
C
wind
direction
speed
KPH
gust
KPH
rain 1hr
cm
rain 24hr
cm
rain mn
cm
humidity
%
barometer
mb
20260510045547 8 0.0 0.0 0.00 0.00 0.00 96 1019.5
20260510044547 8 0.0 0.0 0.00 0.00 0.00 96 1019.3
20260510043627 8 0.0 0.0 0.00 0.00 0.00 95 1019.4
20260510042547 8 0.0 0.0 0.00 0.00 0.00 94 1019.4
20260510041546 8 0.0 0.0 0.00 0.00 0.00 95 1019.3
20260510040547 8 0.0 0.0 0.00 0.00 0.00 93 1019.4
20260510035546 9 0.0 0.0 0.00 0.00 0.00 93 1019.2
20260510034608 9 0.0 0.0 0.00 0.00 0.00 92 1019.3
20260510033549 10 0.0 0.0 0.00 0.00 0.00 93 1019.3
20260510032549 10 0.0 0.0 0.00 0.00 0.00 90 1019.3
20260510031549 10 0.0 0.0 0.00 0.00 0.00 90 1019.1
20260510030549 10 0.0 0.0 0.00 0.00 0.00 90 1018.8
20260510025549 10 0.0 0.0 0.00 0.00 0.00 90 1018.8
20260510024609 11 0.0 0.0 0.00 0.00 0.00 88 1018.7
20260510023549 11 0.0 0.0 0.00 0.00 0.00 87 1018.5
20260510022549 11 0.0 0.0 0.00 0.00 0.00 86 1018.3
20260510021549 12 0.0 0.0 0.00 0.00 0.00 84 1018.1
20260510020549 12 0.0 0.0 0.00 0.00 0.00 83 1017.7
20260510015549 12 0.0 0.0 0.00 0.00 0.00 84 1017.6
20260510014549 12 0.0 1.6 0.00 0.00 0.00 83 1017.6
20260510013549 13 0.0 0.0 0.00 0.00 0.00 80 1017.2
20260510012548 13 0.0 0.0 0.00 0.00 0.00 80 1017.3
20260510011549 13 0.0 0.0 0.00 0.00 0.00 79 1017.0
20260510010549 14 0.0 0.0 0.00 0.00 0.00 78 1016.6
20260510005548 14 0.0 0.0 0.00 0.00 0.00 76 1016.5
20260510004548 15 0.0 0.0 0.00 0.00 0.00 76 1016.2
20260510003549 15 0.0 0.0 0.00 0.00 0.00 75 1016.1
20260510002549 16 0.0 0.0 0.00 0.00 0.00 71 1015.9
20260510001549 16 0.0 0.0 0.00 0.00 0.00 68 1015.8
20260510000549 17 0.0 0.0 0.00 0.00 0.00 65 1015.7
20260509235549 18 0.0 0.0 0.00 0.00 0.00 61 1015.7
20260509234549 19 0.0 0.0 0.00 0.00 0.00 57 1015.6
20260509233549 19 0.0 1.6 0.00 0.00 0.00 56 1015.6
20260509232609 20 0.0 0.0 0.00 0.00 0.00 55 1015.4
20260509231549 20 0.0 1.6 0.00 0.00 0.00 55 1015.3
20260509230609 20 20 0.0 4.8 0.00 0.00 0.00 54 1015.2
20260509225549 20 94 0.0 1.6 0.00 0.00 0.00 55 1015.2
20260509224549 20 85 0.0 3.2 0.00 0.00 0.00 55 1015.3
20260509223549 21 0.0 0.0 0.00 0.00 0.00 54 1015.1
20260509222549 21 92 0.0 1.6 0.00 0.00 0.00 53 1015.3
20260509221549 21 104 0.0 1.6 0.00 0.00 0.00 50 1015.2
20260509220549 22 0.0 0.0 0.00 0.00 0.00 48 1015.1
20260509215549 23 82 0.0 3.2 0.00 0.00 0.00 46 1015.1
20260509214549 22 110 0.0 1.6 0.00 0.00 0.00 46 1014.9
20260509213609 23 103 1.6 1.6 0.00 0.00 0.00 45 1014.8
20260509212551 21 0.0 0.0 0.00 0.00 0.00 50 1015.0
20260509211551 22 0.0 0.0 0.00 0.00 0.00 47 1014.7
20260509210551 22 0.0 1.6 0.00 0.00 0.00 47 1014.7
20260509205551 22 223 1.6 1.6 0.00 0.00 0.00 45 1014.6
20260509204611 22 219 0.0 1.6 0.00 0.00 0.00 45 1014.6
20260509203551 22 264 0.0 3.2 0.00 0.00 0.00 44 1014.6
20260509202551 24 233 3.2 6.4 0.00 0.00 0.00 41 1014.1
20260509201551 23 86 0.0 1.6 0.00 0.00 0.00 42 1014.3
20260509200611 22 202 0.0 3.2 0.00 0.00 0.00 43 1014.4
20260509195551 22 181 1.6 3.2 0.00 0.00 0.00 42 1014.5
20260509194551 23 130 0.0 3.2 0.00 0.00 0.00 42 1014.6
20260509193551 25 114 1.6 3.2 0.00 0.00 0.00 41 1014.6
20260509192551 23 228 1.6 6.4 0.00 0.00 0.00 42 1014.7
20260509191551 23 221 1.6 4.8 0.00 0.00 0.00 43 1014.6
20260509190551 22 158 1.6 4.8 0.00 0.00 0.00 45 1014.8
20260509185611 22 145 1.6 3.2 0.00 0.00 0.00 46 1015.2
20260509184552 22 46 1.6 4.8 0.00 0.00 0.00 46 1015.0
20260509183551 22 107 0.0 1.6 0.00 0.00 0.00 47 1015.1
20260509182551 21 29 0.0 1.6 0.00 0.00 0.00 48 1015.6
20260509181551 21 0.0 1.6 0.00 0.00 0.00 50 1015.7
20260509180552 21 136 0.0 1.6 0.00 0.00 0.00 48 1016.1
20260509175551 22 108 0.0 3.2 0.00 0.00 0.00 46 1015.9
20260509174550 21 80 1.6 3.2 0.00 0.00 0.00 48 1015.8
20260509173551 21 117 1.6 4.8 0.00 0.00 0.00 47 1015.8
20260509172551 20 71 1.6 6.4 0.00 0.00 0.00 49 1015.9
20260509171550 20 0.0 4.8 0.00 0.00 0.00 50 1016.2
20260509170551 20 344 0.0 1.6 0.00 0.00 0.00 48 1016.6
20260509165551 20 20 1.6 4.8 0.00 0.00 0.00 45 1016.5
20260509164611 20 26 1.6 4.8 0.00 0.00 0.00 45 1016.2
20260509163551 20 90 0.0 1.6 0.00 0.00 0.00 46 1016.3
20260509162551 21 247 0.0 3.2 0.00 0.00 0.00 45 1016.2
20260509161551 21 355 1.6 3.2 0.00 0.00 0.00 43 1016.0
20260509160551 21 245 1.6 4.8 0.00 0.00 0.00 43 1015.9
20260509155611 21 282 1.6 6.4 0.00 0.00 0.00 42 1015.5
20260509154551 21 335 1.6 4.8 0.00 0.00 0.00 46 1015.2
20260509153551 21 84 0.0 4.8 0.00 0.00 0.00 46 1015.5
20260509152611 21 256 1.6 6.4 0.00 0.00 0.00 46 1015.8
20260509151551 20 272 3.2 6.4 0.00 0.00 0.00 48 1016.0
20260509150611 20 258 0.0 3.2 0.00 0.00 0.00 48 1016.0
20260509145611 19 261 0.0 4.8 0.00 0.00 0.00 49 1016.3
20260509144551 19 233 1.6 4.8 0.00 0.00 0.00 50 1016.3
20260509143551 18 64 0.0 3.2 0.00 0.00 0.00 52 1016.3
20260509142551 18 316 1.6 3.2 0.00 0.00 0.00 53 1016.5
20260509141551 18 0.0 0.0 0.00 0.00 0.00 52 1016.8
20260509140551 17 34 0.0 3.2 0.00 0.00 0.00 54 1017.0
20260509135552 17 0.0 0.0 0.00 0.00 0.00 55 1017.3
20260509134551 16 75 0.0 1.6 0.00 0.00 0.00 55 1017.5
20260509133551 16 75 0.0 1.6 0.00 0.00 0.00 56 1017.6
20260509132551 16 0.0 0.0 0.00 0.00 0.00 55 1017.4
20260509131551 16 0.0 1.6 0.00 0.00 0.00 59 1017.3
20260509130552 15 0.0 0.0 0.00 0.00 0.00 67 1017.5
20260509125631 14 0.0 0.0 0.00 0.00 0.00 71 1017.8
20260509124551 13 0.0 0.0 0.00 0.00 0.00 73 1017.9
20260509123550 13 0.0 0.0 0.00 0.00 0.00 72 1018.0
20260509122551 13 0.0 0.0 0.00 0.00 0.00 73 1018.0
20260509121612 13 0.0 0.0 0.00 0.00 0.00 74 1018.2
20260509120553 13 0.0 0.0 0.00 0.00 0.00 73 1018.1
20260509115553 12 0.0 0.0 0.00 0.00 0.00 74 1018.0
20260509114553 12 0.0 0.0 0.00 0.00 0.00 64 1018.1
20260509113553 12 0.0 0.0 0.00 0.00 0.00 69 1018.1
20260509112553 12 0.0 0.0 0.00 0.00 0.00 63 1018.0
20260509111553 12 0.0 0.0 0.00 0.00 0.00 61 1018.1
20260509110553 12 0.0 0.0 0.00 0.00 0.00 61 1017.9
20260509105554 12 0.0 0.0 0.00 0.00 0.00 60 1018.0
20260509104553 12 0.0 0.0 0.00 0.00 0.00 58 1017.8
20260509103553 12 0.0 0.0 0.00 0.00 0.00 59 1017.8
20260509102633 12 0.0 0.0 0.00 0.00 0.00 57 1018.1
20260509101554 12 0.0 0.0 0.00 0.00 0.00 57 1018.1
20260509100553 13 0.0 0.0 0.00 0.00 0.00 58 1017.9
20260509095553 13 174 0.0 1.6 0.00 0.00 0.00 57 1017.8
20260509094553 13 192 0.0 1.6 0.00 0.00 0.00 54 1017.9
20260509093553 13 184 0.0 1.6 0.00 0.00 0.00 55 1017.9
20260509092553 13 204 1.6 1.6 0.00 0.00 0.00 53 1018.0
20260509091613 13 0.0 0.0 0.00 0.00 0.00 55 1017.7
20260509090553 13 208 0.0 1.6 0.00 0.00 0.00 55 1017.8
20260509085553 13 187 0.0 1.6 0.00 0.00 0.00 56 1017.9
20260509084556 13 0.0 0.0 0.00 0.00 0.00 55 1018.1
20260509083553 13 0.0 1.6 0.00 0.00 0.00 59 1018.3
20260509082553 12 0.0 0.0 0.00 0.00 0.00 63 1018.5
20260509081553 12 0.0 0.0 0.00 0.00 0.00 55 1018.5
20260509080613 12 0.0 0.0 0.00 0.00 0.00 54 1018.5
20260509075613 12 0.0 0.0 0.00 0.00 0.00 54 1018.6
20260509074552 12 0.0 0.0 0.00 0.00 0.00 55 1018.8
20260509073553 13 213 0.0 1.6 0.00 0.00 0.00 54 1018.7
20260509072552 13 0.0 1.6 0.00 0.00 0.00 53 1018.6
20260509071553 13 0.0 0.0 0.00 0.00 0.00 53 1018.8
20260509070553 13 0.0 0.0 0.00 0.00 0.00 50 1018.7
20260509065613 13 0.0 0.0 0.00 0.00 0.00 51 1018.8
20260509064553 12 0.0 0.0 0.00 0.00 0.00 52 1018.9
20260509063553 12 0.0 0.0 0.00 0.00 0.00 54 1018.8
20260509062552 14 160 1.6 3.2 0.00 0.00 0.00 51 1018.8
20260509061553 15 163 3.2 6.4 0.00 0.00 0.00 46 1018.8
20260509060553 15 154 1.6 3.2 0.00 0.00 0.00 47 1018.8
20260509055554 13 181 1.6 3.2 0.00 0.00 0.00 49 1019.1
20260509054553 13 178 1.6 3.2 0.00 0.00 0.00 51 1019.0
20260509053612 11 186 0.0 1.6 0.00 0.00 0.00 64 1019.1
20260509052553 13 215 0.0 3.2 0.00 0.00 0.00 60 1019.2
20260509051553 12 199 0.0 1.6 0.00 0.00 0.00 61 1019.3
20260509050552 11 0.0 0.0 0.00 0.00 0.00 66 1019.4